SCP
0 0 0 0 0 0 0 0 0 0 0 0 0 0 0 0 0 0 0 0 0 0 0 0 0 0 0 0 0 0 0 0 0 0 0 0 0 0 0 0 0 0 0 0
0 0 0 0 0 0 0 0 0 0 0 0 0 0 0 0 0 0 0 0 0 0 0 0 0 0 0 0 0 0 0 0 0 0 0 0 0 0 0 0 0 0 0 0
0 0 0 0 0 0 0 0 0 0 0 0 0 0 0 0 0 0 0 0 0 0 0 0 0 0 0 0 0 0 0 0 0 0 0 0 0 0 0 0 0 0 0 0
0 0 0 0 0 0 0 0 0 0 0 0 0 0 0 0 0 0 0 0 0 0 0 0 0 0 0 0 0 0 0 0 0 0 0 0 0 0 0 0 0 0 0 0
0 0 0 0 0 0 0 0 0 0 0 0 0 0 0 0 0 0 0 0 0 0 0 0 0 0 0 0 0 0 0 0 0 0 0 0 0 0 0 0 0 0 0 0
0 0 0 0 0 0 0 0 0 0 0 0 0 0 0 0 0 0 0 0 0 0 0 0 0 0 0 0 0 0 0 0 0 0 0 0 0 0 0 0 0 0 0 0
0 0 0 0 0 0 0 0 0 0 0 0 0 0 0 0 0 0 0 0 0 0 0 0 0 0 0 0 0 0 0 0 0 0 0 0 0 0 0 0 0 0 0 0
0 0 0 0 0 0 0 0 0 0 0 0 0 0 0 0 0 0 0 0 0 0 0 0 0 0 0 0 0 0 0 0 0 0 0 0 0 0 0 0 0 0 0 0
0 0 0 0 0 0 0 0 0 0 0 0 0 0 0 0 0 0 0 0 0 0 0 0 0 0 0 0 0 0 0 0 0 0 0 0 0 0 0 0 0 0 0 0
0 0 0 0 0 0 0 0 0 0 0 0 0 0 0 0 0 0 0 0 0 0 0 0 0 0 0 0 0 0 0 0 0 0 0 0 0 0 0 0 0 0 0 0
0 0 0 0 0 0 0 0 0 0 0 0 0 0 0 0 0 0 0 0 0 -0 0 0 0 0 0 0 0 0 0 0 0 0 0 0 0 0 0 0 0 0 0 0
0 0 0 0 0 0 0 0 0 0 0 0 0 0 0 0 0 0 0 0 0 0 0 0 0 0 0 0 0 0 0 0 0 0 0 0 0 0 0 0 0 0 0 0
0 0 0 0 0 0 0 0 0 0 0 0 0 0 0 0 0 0 0 0 0 0 0 0 0 0 0 0 0 0 0 0 0 0 0 0 0 0 0 0 0 0 0 0
0 0 0 0 0 0 0 0 0 0 0 0 0 0 0 0 0 0 0 0 0 0 0 0 0 0 0 0 0 0 0 0 0 0 0 0 0 0 0 0 0 0 0 0
0 0 0 0 0 0 0 0 0 0 0 0 0 0 0 0 0 0 0 0 0 0 0 0 0 0 0 0 0 0 0 0 0 0 0 0 0 0 0 0 0 0 0 0
0 0 0 0 -0 0 0 0 0 0 0 0 0 0 0 0 0 0 0 0 0 0 0 0 0 0 0 0 0 0 0 0 0 0 0 0 0 0 0 0 0 0 0 0
0 0 0 0 0 -0 0 0 0 0 0 0 0 0 0 0 0 0 0 0 0 0 0 0 0 0 0 0 0 0 0 0 0 0 0 0 0 0 0 0 0 0 0 0
0 0 0 0 0 0 0 0 0 0 0 0 0 0 0 0 0 0 0 0 0 0 0 0 0 0 0 0 0 0 0 0 0 0 0 0 0 0 0 0 0 0 0 0
0 0 0 0 0 0 0 0 0 0 0 0 0 0 0 0 0 0 0 0 0 0 0 0 0 0 0 0 0 0 0 0 0 0 0 0 0 0 0 0 0 0 0 0
0 0 0 0 0 0 0 0 0 0 0 0 0 0 0 0 0 0 0 0 0 0 0 0 0 0 0 0 0 0 0 0 0 0 0 0 0 0 0 0 0 0 0 0
0 0 0 0 0 0 0 0 0 0 0 0 0 0 0 0 0 0 0 0 0 0 0 0 0 0 0 0 0 0 0 0 0 0 0 0 0 0 0 0 0 0 0 0
0 0 0 0 0 0 0 0 0 0 0 0 0 0 0 0 0 0 0 0 0 0 0 0 0 0 0 0 0 0 0 0 0 0 0 0 0 0 0 0 0 0 0 0
0 0 0 0 0 0 0 0 0 0 0 0 0 0 0 0 0 0 0 0 0 0 0 0 0 0 0 0 0 0 0 0 0 0 0 0 0 0 0 0 0 0 0 0
0 0 0 0 0 0 0 0 0 0 0 0 0 0 0 0 0 0 0 0 0 0 0 0 0 0 0 0 0 0 0 0 0 0 0 0 0 0 0 0 0 0 0 0
0 0 0 0 0 0 0 0 0 0 0 0 0 0 0 0 0 0 0 0 0 0 0 0 0 0 0 0 0 0 0 0 0 0 0 0 0 0 0 0 0 0 0 0
0 0 0 0 0 0 0 0 0 0 0 0 0 0 0 0 0 0 0 0 0 0 0 0 0 0 0 0 0 0 0 0 0 0 0 0 0 0 0 0 0 0 0 0
Wind_Speed
7 9 12 14 15 10 10 12 13 10 5 10 14 15 12 9 9 10 10 10 10 11 9 8 9 10 11 11 12 12 12 11 9 7 6 5 5 4 4 3 4 4 3 3
6 12 12 11 11 9 10 11 11 6 4 7 10 14 12 12 13 12 12 12 11 10 9 8 9 10 11 13 13 13 13 12 11 8 6 4 5 4 3 3 3 3 3 3
9 6 8 10 10 12 12 12 10 6 4 6 7 12 13 10 11 10 11 11 10 10 10 9 10 11 11 12 13 12 13 12 11 9 6 5 4 4 4 4 3 3 3 3
7 5 8 10 11 11 11 9 8 8 7 6 7 8 10 9 9 10 10 9 9 9 9 9 9 10 11 12 11 12 12 12 11 11 9 10 7 6 5 5 4 4 4 4
5 6 9 11 10 9 5 4 7 9 9 7 8 9 8 7 10 10 9 8 8 7 8 8 9 9 10 10 10 11 12 12 11 11 11 10 8 5 4 5 6 5 4 4
3 3 5 7 6 7 4 3 2 5 6 10 11 11 9 7 9 8 7 6 6 6 6 6 6 7 7 8 9 10 12 12 11 11 11 10 9 8 7 7 6 5 4 3
2 2 1 2 4 7 7 6 4 6 7 8 8 10 8 3 4 6 6 5 4 4 4 4 5 6 7 8 9 10 12 12 12 11 10 10 9 9 9 8 7 5 4 3
3 3 3 2 5 7 10 10 6 6 8 5 7 11 4 1 1 3 3 2 2 2 2 3 4 5 6 8 9 10 11 11 11 11 10 9 9 7 6 7 6 6 4 4
2 2 1 3 3 6 8 7 3 2 2 5 7 6 4 3 3 2 1 1 1 1 1 2 3 4 5 7 9 10 11 10 11 10 9 8 8 7 6 6 6 4 4 3
1 2 2 1 1 1 4 4 4 5 5 6 7 8 5 3 3 1 1 2 2 2 1 1 1 2 4 5 7 9 10 10 10 9 8 7 8 7 6 6 6 5 4 4
1 1 1 1 3 4 4 5 3 4 4 5 5 3 1 2 1 2 2 3 2 2 2 1 1 1 3 4 6 7 8 9 8 8 8 7 7 6 6 5 5 5 4 4
2 1 1 2 3 4 3 5 5 5 4 4 4 1 3 2 3 3 3 3 3 3 2 2 1 1 3 4 5 6 7 8 8 7 7 7 6 6 6 5 5 5 4 4
1 0 1 1 1 1 1 2 3 3 3 5 6 2 3 3 4 4 3 3 3 3 3 2 1 1 2 3 4 6 7 7 7 7 7 7 7 6 6 5 5 5 4 4
2 0 2 4 3 2 3 4 3 4 5 6 8 5 2 4 4 4 3 3 2 3 3 3 2 2 1 2 3 5 6 6 7 7 7 7 6 6 5 5 5 5 4 4
2 1 1 4 5 3 4 5 5 6 6 7 7 6 4 4 3 3 2 2 2 3 3 3 3 2 1 1 2 4 5 6 7 7 6 6 5 5 5 5 5 4 4 4
3 1 2 3 3 4 3 4 5 6 6 6 6 6 3 3 2 2 2 2 2 2 3 3 3 3 2 1 2 4 5 6 6 6 6 6 6 5 5 5 4 4 4 3
2 1 2 2 4 3 3 2 3 3 3 5 7 5 2 3 3 3 2 1 1 2 2 2 2 2 2 1 1 3 5 5 6 6 6 6 6 5 5 5 5 4 4 3
1 1 1 2 2 3 2 3 2 2 1 2 4 4 3 4 4 3 2 1 2 3 3 3 2 2 2 1 1 3 4 5 6 6 5 5 5 5 5 5 4 4 3 3
2 2 1 2 3 4 1 3 4 3 3 3 4 5 4 3 2 2 2 2 3 3 3 2 2 1 1 1 2 4 5 5 5 5 5 5 5 5 5 4 4 3 3 3
1 0 1 2 3 3 2 5 6 4 3 5 6 5 4 3 3 2 3 4 4 3 2 2 2 2 2 2 3 4 5 5 4 4 4 4 4 5 5 4 3 3 2 2
2 1 2 3 3 2 4 6 4 3 3 7 7 6 4 4 4 3 3 4 3 3 3 3 3 3 3 3 3 4 4 4 3 3 4 3 4 4 4 4 3 3 2 2
2 1 1 2 3 2 5 4 2 5 6 6 6 5 5 4 3 2 2 3 3 3 3 3 3 4 3 3 3 4 4 3 3 4 4 4 3 3 3 4 3 3 3 2
2 2 2 3 3 4 3 4 5 5 6 6 6 5 4 2 2 2 2 2 2 2 3 3 3 4 4 3 3 4 4 3 4 4 4 4 4 4 4 4 3 3 2 2
1 1 3 4 5 5 5 5 5 5 6 6 5 4 3 2 2 2 2 2 2 3 3 3 3 4 4 4 4 4 3 3 4 5 5 4 4 4 4 3 2 2 2 1
3 2 3 5 5 6 4 5 6 6 5 5 4 3 2 1 2 2 2 2 2 2 2 3 3 3 4 4 4 3 3 4 5 5 4 4 4 4 3 3 2 2 1 1
2 3 3 4 3 4 6 7 6 5 5 4 4 4 4 2 2 2 2 2 2 2 3 3 3 4 4 4 4 3 3 3 4 4 4 3 3 3 3 3 3 3 2 2
Wind_Direction
189 203 207 205 210 232 223 222 226 228 220 224 234 243 243 237 237 237 232 226 223 223 214 203 198 191 186 185 183 180 177 173 167 165 167 167 171 167 161 152 151 152 147 147
194 216 214 211 212 220 219 221 224 225 215 233 243 250 249 242 240 239 239 234 228 223 212 202 196 189 188 186 185 184 182 178 178 177 172 171 161 166 159 153 155 156 156 155
213 212 202 204 209 215 221 224 221 216 222 233 255 252 236 232 235 239 241 240 235 225 217 208 201 196 192 191 189 186 185 182 181 175 161 145 141 149 163 169 168 171 169 165
219 214 201 205 211 213 225 220 218 208 211 222 222 256 228 219 229 233 235 232 232 228 223 216 206 201 198 195 189 188 185 182 181 176 174 170 177 178 182 177 172 171 175 170
210 203 203 208 212 213 221 208 218 221 225 238 224 246 244 214 230 227 227 227 228 224 220 216 211 205 200 193 188 187 183 181 180 182 182 182 185 179 165 166 170 172 172 174
233 226 217 219 217 195 156 143 181 216 219 233 219 225 245 211 224 227 230 233 232 222 216 214 209 198 195 188 183 184 182 181 180 183 186 188 183 172 166 172 173 176 174 177
221 210 203 186 175 176 181 172 178 193 204 225 195 222 244 221 241 241 239 238 233 219 210 207 203 196 190 184 181 183 184 181 180 182 187 190 185 179 178 178 180 180 182 185
205 209 197 223 211 199 206 204 210 211 210 207 196 227 232 218 236 239 256 261 235 216 204 205 204 197 191 186 182 181 184 182 179 181 185 188 185 183 183 184 183 188 190 190
246 238 278 278 276 200 192 212 253 265 245 226 213 231 233 218 213 209 242 335 336 269 220 212 202 194 191 188 185 183 181 180 180 181 181 183 183 183 182 181 183 185 185 182
304 264 287 295 240 259 215 183 196 205 204 219 215 227 215 191 221 217 284 314 326 327 326 297 219 195 188 185 182 181 179 178 176 177 177 178 180 182 180 178 178 177 177 177
319 242 284 268 225 217 189 198 214 206 249 245 222 211 54 226 274 275 293 321 329 331 323 314 290 192 172 168 171 174 176 172 170 172 172 171 171 174 174 174 174 171 169 174
340 270 263 294 313 316 247 217 205 211 213 247 260 192 27 332 336 325 329 343 346 351 351 355 18 147 152 157 165 169 172 170 168 166 166 165 162 164 168 168 166 163 164 169
314 185 213 177 181 9 314 290 249 231 223 230 237 208 54 2 355 347 343 350 359 6 13 30 54 99 137 153 164 168 168 165 161 160 160 157 159 162 162 160 158 157 159 161
344 262 243 247 290 269 273 274 255 221 227 232 243 252 292 331 342 349 351 353 7 18 23 34 40 56 93 137 159 164 162 158 155 155 155 156 160 161 159 156 153 155 156 158
358 283 282 292 289 267 259 257 242 232 236 241 248 255 281 329 333 346 355 2 16 21 15 19 23 28 51 105 140 150 152 151 151 152 152 154 153 150 148 147 146 146 149 150
357 304 284 291 300 301 288 276 251 245 246 252 265 273 330 335 350 348 346 354 354 3 359 0 7 14 23 71 131 144 150 150 152 151 149 146 145 144 145 143 141 141 139 138
317 303 289 283 322 286 253 280 255 249 244 241 248 274 332 321 315 310 303 307 321 338 334 332 338 350 358 16 136 150 150 147 147 145 143 144 146 146 145 142 140 140 140 138
241 279 280 286 295 241 52 26 323 278 293 280 289 303 284 296 303 311 319 308 332 335 326 321 325 339 353 23 120 134 135 140 141 142 144 146 147 146 144 143 142 143 145 144
246 231 249 248 257 276 328 7 351 307 290 340 307 308 328 338 310 313 360 337 333 328 324 330 333 340 16 62 127 131 132 134 135 139 145 150 151 148 148 148 146 147 147 145
39 261 240 240 252 263 3 349 329 286 268 13 338 316 321 316 269 304 2 350 344 348 358 13 31 45 59 74 111 125 129 132 136 141 143 147 151 150 150 148 146 145 143 144
341 328 246 249 253 272 359 333 313 252 327 337 322 312 302 290 304 332 339 348 359 9 17 33 49 51 55 74 104 114 118 124 131 130 129 133 141 145 142 139 139 140 137 136
295 280 253 251 241 266 11 344 324 325 325 315 317 311 307 314 333 339 354 6 15 24 31 42 58 54 50 66 100 107 103 106 119 123 121 122 124 127 132 130 131 133 135 134
261 294 295 263 281 332 325 317 319 319 314 320 319 314 309 314 332 350 357 4 17 26 38 50 66 63 53 56 83 100 93 102 114 115 114 114 112 112 118 125 128 127 132 135
241 278 253 267 277 304 311 317 324 326 320 322 321 319 318 322 341 352 360 10 23 35 44 54 68 66 54 53 66 82 94 103 110 110 108 109 110 105 102 105 115 124 131 136
290 259 248 259 289 306 309 330 332 331 332 337 344 345 341 360 4 1 6 12 30 38 40 49 62 66 57 54 60 74 91 106 110 109 107 105 103 104 99 92 88 97 90 95
228 238 254 273 308 298 309 328 330 327 335 343 356 5 7 8 8 15 22 29 38 44 46 53 57 62 59 58 57 59 79 102 111 110 109 106 104 101 101 100 89 73 74 57